Regional Weather Roundup
Issued by NWS

Home | Current Version | Previous Version | Text Only | Print | Product List | Glossary Off
Versions: 1 2 3 4 5 6 7 8 9 10 11 12 13 14 15 16 17 18 19 20 21 22 23 24 25 26 27 28 29 30 31 32 33 34 35 36 37 38 39 40 41 42 43 44 45 46 47 48 49 50

423
ASUS43 KFSD 231902
RWRSD

WEATHER ROUNDUP FOR SOUTH DAKOTA
NATIONAL WEATHER SERVICE SIOUX FALLS SD
100 PM CST THU FEB 23 2017

NOTE: "FAIR" INDICATES FEW OR NO CLOUDS BELOW 12,000 FEET WITH NO
SIGNIFICANT WEATHER AND/OR OBSTRUCTIONS TO VISIBILITY.


SDZ001>005-009-010-012>017-232000-
NORTHWEST AND NORTH CENTRAL SOUTH DAKOTA

CITY           SKY/WX    TMP DP  RH WIND       PRES   REMARKS
BUFFALO          N/A     30  22  72 E15       29.87S WCI  19
FAITH            N/A     30  24  78 NE14      29.93S WCI  19
MOBRIDGE       CLOUDY    33  23  66 NE13      29.95S WCI  24
$$

SDZ012>016-024>037-041>051-057-063-072>074-232000-
SOUTHWEST AND SOUTH CENTRAL SOUTH DAKOTA

CITY           SKY/WX    TMP DP  RH WIND       PRES   REMARKS
RAPID CTY ARPT LGT SNOW  26  22  84 NE12      29.89S VSB 1   WCI  16
PIERRE         CLOUDY    32  23  69 NE16      29.92F WCI  21
CUSTER         LGT SNOW  18  13  80 NE17G24   29.72F VSB 3/4 WCI   3
ELLSWORTH AFB  LGT SNOW  26  25  93 NE7       29.88  FOG     WCI  19
PHILIP         LGT SNOW  31  25  78 NE17      29.90F WCI  19
PINE RIDGE     LGT SNOW  25  22  88 NE16      29.79F VSB 3/4 WCI  12
SPEARFISH      LGT SNOW  25  23  93 E14       29.86S VSB 1   WCI  13
WINNER         LGT SNOW  30  26  85 NE18      29.86S VSB 1   WCI  18
$$

SDZ004>011-016>023-039-040-232000-
NORTHEAST SOUTH DAKOTA

CITY           SKY/WX    TMP DP  RH WIND       PRES   REMARKS
ABERDEEN       CLOUDY    29  20  69 NE16      29.99S WCI  17
WATERTOWN      CLOUDY    29  22  75 NE20G26   29.92S WCI  16
BROOKINGS      CLOUDY    30  23  75 NE17G23   29.87F WCI  18
SISSETON         N/A     29  23  78 NE20      29.98S WCI  16
$$

SDZ017-020-022-023-036>040-048>070-232000-
SOUTHEAST SOUTH DAKOTA

CITY           SKY/WX    TMP DP  RH WIND       PRES   REMARKS
SIOUX FALLS    FLURRIES  32  27  81 NE18G25   29.85F WCI  20
HURON          CLOUDY    32  24  72 NE15      29.92F WCI  22
CHAMBERLAIN    LGT SNOW  32  29  88 NE12      29.89F WCI  23
MITCHELL       FLURRIES  33  25  72 NE16      29.90F WCI  23
YANKTON        CLOUDY    34  27  75 N20G26    29.81F WCI  22
$$

ABBREVIATIONS USED IN REMARKS
   TC - TEMPERATURE IN CELSIUS
  WCI - WIND CHILL INDEX
   HX - HEAT INDEX
  VSB - VISIBILITY





USA.gov is the U.S. government's official web portal to all federal, state and local government web resources and services.